Location: Unspecified
(0.0000°N, 0.0000°E)
Time: 16:40:16
(UTC+00:00)

TRS 6 - Pass Details

Date: 17 February 2019
Orbit: 3570 x 3718 km, 87.3° (Epoch: 20 March)

Event Time Altitude Azimuth Distance (km) Brightness Sun altitude
Rises 19:46:18 0° 179° (S) 7,696 ? -22.6°
Reaches altitude 10° 19:50:35 10° 178° (S) 6,677 ? -23.6°
Maximum altitude 20:09:35 87° 266° (W) 3,679 ? -28.2°
Drops below altitude 10° 20:28:56 10° 356° (N) 6,778 ? -32.9°
Sets 20:33:20 0° 357° (N) 7,816 ? -34.0°
